Hourly Data Report for July 01, 2021

WINDSOR A
ONTARIO
Current Station Operator: NAVCAN

42°16'34.000" N
82°57'19.000" W
189.60 m
6139530
71538
YQG

Download Data

Hourly Data (July 2021)
Hourly Data Report for July 1, 2021
TIME
LST
Temp Definition
°C
Dew Point Definition
°C
Rel Hum Definition
%
Precip. Amount Definition
mm

Wind Dir Definition
10's deg

Wind Spd Definition
km/h
Visibility Definition
km
Stn Press Definition
kPa
Hmdx Definition


Wind Chill Definition


Weather Definition


00:00 22.1 21.4 96 0.0 25 11 16.1 99.17 31   LegendNANA
01:00 21.8 21.1 96 0.0 27 11 16.1 99.16 30   LegendNANA
02:00 21.0 20.4 96 0.0 29 8 16.1 99.12 29   LegendNANA
03:00 21.7 18.9 84 0.0 32 11 16.1 99.08 28   LegendNANA
04:00 19.8 18.3 91 0.0 4 18 16.1 99.12     LegendNANA
05:00 18.9 17.3 90 0.0 3 11 16.1 99.11     LegendNANA
06:00 19.6 17.4 87 0.0 3 13 16.1 99.13     LegendNANA
07:00 20.2 17.4 84 0.0 3 13 16.1 99.14 26   LegendNANA
08:00 21.6 16.7 73 0.0 3 15 16.1 99.16 27   LegendNANA
09:00 22.4 17.4 73 0.0 3 13 16.1 99.18 28   LegendNANA
10:00 23.9 17.7 68 0.0 3 11 16.1 99.17 30   LegendNANA
11:00 24.2 18.4 70 0.0 6 17 16.1 99.19 31   LegendNANA
12:00 23.0 19.1 78 1.3 3 21 8.1 99.16 30   Thunderstorms,Heavy Rain
13:00 23.9 19.1 74 0.8 4 21 16.1 99.13 31   LegendNANA
14:00 23.3 17.9 71 0.0 4 24 16.1 99.10 29   LegendNANA
15:00 23.7 18.0 70 0.0 5 22 16.1 99.10 30   LegendNANA
16:00 23.0 18.2 74 0.0 6 28 16.1 99.08 29   LegendNANA
17:00 22.6 16.1 66 0.0 5 26 16.1 99.09 27   LegendNANA
18:00 21.7 16.3 71 0.0 6 26 16.1 99.13 27   LegendNANA
19:00 20.1 15.0 72 0.0 4 22 16.1 99.19     LegendNANA
20:00 19.2 14.3 73 0.0 4 30 16.1 99.20     LegendNANA
21:00 18.0 13.8 76 0.0 4 26 16.1 99.24     LegendNANA
22:00 17.4 13.0 75 0.0 2 22 16.1 99.30     LegendNANA
23:00 16.1 11.7 75 0.0 36 15 16.1 99.30     LegendNANA

Notes on Data Quality.

Legend

  • E = Estimated
  • M = Missing
  • NA = Not Available*
  • [empty] = Indicates an unobserved value
Date modified: